Wind_Speed
3 3 3 3 4 4 5 6 7 7 7 7 7 7 6 6 5 4 3 1 1 3 5 7 8 9 9 10 11 12 13 13 12 12 12 12 11 10 10 9 9 8 8
3 3 3 3 3 3 3 3 4 4 5 5 5 5 5 5 4 4 3 2 1 2 3 4 6 7 9 10 11 11 12 12 13 13 13 13 12 11 11 10 9 9 8
4 4 5 4 4 3 3 2 2 2 3 3 3 3 4 4 3 3 3 3 2 2 2 3 4 5 7 8 10 11 11 12 12 12 13 13 12 12 11 11 10 9 7
5 6 7 6 5 5 4 4 3 2 2 2 2 2 2 2 3 3 3 3 3 3 2 2 3 4 5 7 8 9 10 11 11 11 12 12 12 12 12 11 10 9 7
7 8 9 8 8 7 7 6 5 4 4 3 3 2 2 2 2 2 3 3 3 3 3 3 3 3 4 6 7 8 9 10 10 10 11 11 11 11 11 10 9 8 6
9 10 10 10 10 10 9 9 8 7 6 6 5 4 4 4 3 3 3 3 3 3 3 3 3 3 4 5 6 7 8 8 9 9 9 9 10 10 10 9 8 7 6
11 12 12 13 12 12 11 11 11 10 9 9 8 7 6 6 5 5 4 4 3 4 4 4 4 3 3 4 5 6 6 7 7 8 7 7 7 8 7 7 6 5 5
14 13 13 14 14 14 14 14 13 13 13 12 11 10 9 9 8 7 6 5 5 4 4 4 4 4 4 3 4 4 5 5 6 6 6 5 5 5 5 5 5 4 4
16 16 16 16 15 15 16 16 17 16 16 16 15 14 13 12 11 10 9 8 7 6 5 5 5 5 4 4 4 4 4 4 4 4 4 4 4 4 4 4 4 4 4
19 19 19 18 18 18 18 19 19 19 19 19 19 18 16 15 15 13 12 11 10 8 8 7 6 6 5 5 5 5 4 4 3 4 4 4 4 3 3 4 5 5 5
22 22 21 22 22 22 21 21 21 20 21 21 21 20 20 19 18 17 15 14 13 11 10 9 8 7 7 6 6 6 5 4 4 3 4 4 4 4 4 4 5 5 5
27 27 26 26 26 26 25 25 25 24 23 22 21 21 21 21 20 19 19 18 17 15 13 12 11 10 9 8 7 7 6 5 5 4 4 5 5 5 4 5 5 5 5
31 31 31 31 31 31 31 31 30 28 27 26 24 23 23 23 23 22 22 21 20 19 17 15 14 12 11 10 9 8 7 6 6 5 5 5 6 6 5 5 5 6 6
34 34 35 34 35 35 35 35 35 34 33 31 29 28 26 25 26 26 25 23 23 22 21 19 17 16 14 13 12 10 9 8 7 6 6 6 7 6 6 5 6 7 6
34 35 36 37 37 37 37 37 37 37 37 36 35 33 31 30 29 29 28 26 25 24 23 23 21 19 17 15 14 13 12 10 9 8 8 7 7 7 7 7 8 7 7
34 35 35 36 36 37 39 39 40 40 39 39 39 38 36 34 33 32 31 29 28 26 25 25 23 22 21 19 17 16 15 14 13 11 10 9 9 9 8 8 9 9 9
34 35 35 35 36 36 37 39 40 40 40 40 41 41 40 39 37 33 32 31 30 29 28 26 26 25 24 23 21 20 18 17 16 14 13 12 11 10 10 10 10 10 10
32 33 33 34 35 35 36 37 38 39 40 41 41 42 43 43 42 39 36 33 32 31 31 29 27 27 27 27 25 24 22 20 19 18 16 14 13 13 12 12 11 11 11
29 30 31 31 32 34 34 35 36 37 38 40 41 42 43 44 43 42 41 39 36 34 32 30 28 27 27 29 29 28 26 25 22 21 19 18 16 15 15 14 13 13 12
26 27 27 28 29 31 32 32 33 34 35 36 38 40 41 42 44 44 44 42 40 37 34 33 31 28 27 29 30 30 29 28 26 24 22 21 19 18 17 16 16 15 14
24 23 23 24 25 27 28 29 30 31 32 33 35 37 39 41 42 44 45 44 43 40 38 35 33 31 29 29 30 31 32 30 29 27 25 23 22 21 20 18 17 17 16
22 22 22 21 21 21 22 23 24 26 27 29 31 33 35 38 40 41 44 45 45 43 40 38 35 33 31 31 31 32 33 33 31 30 28 27 25 24 23 21 20 19 18
22 22 21 20 19 19 18 19 20 21 23 25 27 30 33 35 38 39 42 44 45 45 43 41 39 36 34 32 32 33 32 33 33 32 31 29 28 27 26 24 23 21 20
22 21 20 20 19 17 16 16 17 17 19 21 24 26 29 32 35 37 40 42 44 45 45 44 42 39 37 35 33 33 33 34 34 34 33 31 31 30 28 27 26 25 23
22 21 20 20 18 17 16 15 15 15 17 19 21 23 25 28 30 33 36 40 43 44 44 44 44 42 41 38 36 35 34 34 35 35 34 33 32 32 31 30 28 27 26
22 21 21 20 19 18 17 16 15 15 15 16 18 20 23 24 27 29 32 35 39 41 43 44 44 44 44 42 40 39 36 35 35 35 36 35 34 34 33 32 31 30 28
Wind_Direction
8 15 18 27 37 47 59 69 71 71 70 68 67 65 64 62 57 51 47 38 275 258 256 250 248 252 257 257 254 253 251 255 259 261 264 266 272 279 288 297 307 319 329
327 326 327 337 353 9 27 49 60 64 65 62 59 57 55 54 51 45 39 26 347 289 272 261 255 256 260 259 256 255 253 255 259 260 262 264 268 272 280 289 297 306 316
297 297 297 298 305 313 325 345 13 35 46 50 46 45 45 43 41 35 28 19 6 339 305 284 270 261 263 262 259 257 256 258 261 260 263 264 265 268 274 279 287 297 304
286 282 281 282 283 286 292 298 306 318 337 354 3 8 14 17 19 17 15 11 4 351 327 302 286 274 266 263 262 257 255 258 262 262 262 263 266 267 269 273 279 286 293
285 280 277 275 275 276 277 280 283 285 287 291 296 301 309 323 337 348 353 353 351 347 336 320 299 287 272 265 264 260 256 258 261 262 263 264 264 263 266 270 274 277 282
287 281 276 272 271 272 273 273 274 273 273 273 273 274 277 283 293 306 318 328 330 331 328 320 306 292 276 269 266 264 261 261 262 261 262 262 261 262 263 262 262 264 272
287 283 277 272 269 266 266 267 267 266 265 266 266 264 263 266 272 279 285 291 302 307 309 312 311 304 289 276 272 269 265 263 262 257 258 258 259 259 256 249 246 250 255
284 279 276 277 275 270 266 265 264 263 262 260 261 260 258 257 259 263 268 272 277 286 293 296 297 298 295 280 275 274 268 265 260 257 253 253 250 244 241 233 229 230 228
287 283 280 280 278 276 272 268 265 261 260 258 257 256 255 253 253 255 256 260 264 269 276 282 285 285 284 278 270 269 269 266 261 253 246 238 229 221 215 209 208 202 198
282 282 281 282 281 279 275 273 270 264 261 258 256 254 254 252 251 251 252 253 256 259 263 268 271 273 274 272 266 262 261 259 252 243 236 225 207 192 188 188 186 183 181
278 277 276 277 277 278 277 275 274 270 268 264 260 256 253 251 250 251 252 252 253 255 257 260 263 263 264 264 263 259 253 246 242 239 231 219 199 188 181 177 175 170 168
273 271 268 267 268 270 270 271 270 270 268 266 265 263 258 252 250 251 251 252 252 252 254 255 257 257 256 257 258 257 250 242 237 230 222 211 198 193 184 174 172 173 171
270 269 268 265 264 265 265 265 264 264 263 263 263 264 260 254 251 251 252 251 251 250 250 251 252 252 251 251 253 252 245 238 231 223 214 207 202 201 191 180 178 178 172
272 269 268 266 265 264 263 261 260 260 259 260 260 260 258 256 254 252 251 252 251 250 249 247 249 250 248 247 248 247 240 235 231 223 213 207 205 205 195 186 184 181 178
277 274 272 269 267 265 262 261 258 258 257 257 257 256 256 257 255 253 250 250 250 250 249 246 247 247 247 246 245 243 239 234 230 227 219 211 208 207 204 199 195 192 189
282 280 278 275 272 267 264 261 259 257 255 254 254 253 253 254 254 254 251 250 249 248 249 248 247 247 244 244 242 240 239 235 231 230 225 220 216 214 213 211 208 206 201
286 284 282 279 276 272 267 263 261 258 255 253 252 251 251 250 251 252 253 250 249 247 245 247 247 246 243 242 240 239 238 236 233 231 228 226 221 218 218 219 217 214 209
290 288 286 282 279 276 272 267 263 259 256 253 252 251 250 250 250 250 250 251 250 250 247 246 249 246 244 241 240 238 237 236 234 232 230 229 226 224 223 223 222 220 217
296 294 290 287 282 279 275 270 266 263 259 255 252 250 249 249 249 249 249 248 249 249 248 246 246 247 246 241 238 238 237 236 235 234 233 231 228 227 228 227 227 225 224
305 301 297 292 288 283 278 273 268 265 261 257 253 250 248 247 247 247 247 247 247 247 248 247 245 245 246 241 237 236 236 236 235 234 233 232 230 230 231 229 230 230 230
318 314 308 302 297 290 283 276 271 267 262 258 254 251 250 248 246 245 245 246 246 246 246 246 246 246 245 240 237 236 235 234 234 233 233 233 232 232 232 231 231 232 233
331 327 322 314 307 300 290 283 276 271 265 259 255 252 251 249 247 245 243 242 243 243 243 243 244 243 243 240 237 237 235 233 233 233 233 234 234 234 234 234 233 234 236
339 337 334 328 321 313 303 292 283 276 270 265 260 255 252 250 247 245 243 242 241 241 241 241 240 241 242 240 239 237 235 235 233 233 233 234 234 234 235 235 235 236 238
347 345 344 341 335 328 319 308 295 285 278 271 265 260 256 252 248 245 242 241 241 240 240 240 239 239 238 238 238 236 235 235 233 234 234 235 235 234 235 236 237 238 240
354 353 352 350 346 340 333 325 313 301 290 281 273 266 261 256 250 246 244 241 241 240 239 239 238 237 236 236 236 235 234 233 232 235 235 235 235 235 235 236 238 239 241
1 360 358 355 353 350 345 338 331 321 308 295 284 274 266 259 253 249 246 243 241 240 239 238 237 235 235 235 235 234 233 232 231 232 234 234 234 234 235 236 238 239 241
Height
5909 5908 5908 5908 5907 5906 5906 5905 5904 5904 5903 5903 5903 5903 5903 5903 5903 5903 5903 5903 5903 5903 5903 5904 5905 5905 5906 5906 5907 5908 5909 5909 5910 5911 5911 5912 5912 5912 5912 5912 5912 5912 5911
5909 5908 5908 5907 5907 5906 5906 5905 5904 5904 5903 5903 5903 5903 5903 5903 5903 5903 5903 5902 5902 5902 5902 5903 5903 5904 5904 5905 5906 5906 5907 5908 5909 5909 5910 5910 5911 5911 5911 5911 5911 5911 5911
5908 5907 5907 5907 5906 5905 5905 5904 5904 5903 5903 5903 5903 5903 5903 5903 5903 5903 5902 5902 5902 5902 5902 5902 5902 5903 5903 5904 5904 5905 5906 5907 5907 5908 5908 5908 5909 5909 5910 5910 5910 5910 5910
5907 5906 5906 5905 5905 5904 5904 5903 5903 5903 5902 5902 5902 5902 5902 5902 5902 5902 5902 5902 5902 5901 5901 5901 5901 5902 5902 5902 5903 5903 5904 5905 5906 5906 5906 5907 5907 5908 5908 5908 5909 5909 5910
5905 5905 5904 5904 5903 5903 5902 5902 5902 5901 5901 5901 5901 5901 5901 5901 5901 5901 5902 5901 5901 5901 5901 5901 5901 5901 5901 5901 5902 5902 5903 5903 5904 5904 5905 5905 5906 5906 5907 5907 5908 5908 5909
5904 5903 5902 5902 5901 5901 5900 5900 5900 5900 5900 5900 5900 5900 5900 5900 5901 5901 5901 5901 5901 5901 5901 5900 5900 5900 5900 5901 5901 5901 5901 5902 5902 5903 5903 5904 5904 5904 5905 5906 5907 5907 5908
5901 5901 5900 5899 5898 5898 5898 5898 5898 5898 5898 5898 5898 5899 5899 5899 5900 5900 5900 5900 5900 5900 5900 5900 5900 5900 5900 5900 5900 5900 5900 5901 5901 5901 5902 5902 5903 5903 5904 5905 5906 5906 5907
5899 5897 5897 5897 5896 5896 5895 5895 5895 5895 5896 5896 5896 5897 5897 5897 5898 5898 5899 5899 5899 5899 5899 5899 5899 5899 5899 5899 5899 5899 5899 5900 5900 5900 5901 5901 5902 5902 5903 5904 5905 5906 5907
5896 5895 5894 5893 5893 5893 5893 5892 5892 5892 5892 5893 5893 5894 5894 5895 5895 5896 5897 5897 5897 5898 5898 5898 5898 5898 5898 5898 5898 5899 5899 5899 5900 5900 5900 5901 5901 5902 5902 5903 5904 5905 5906
5893 5892 5891 5890 5890 5889 5889 5889 5889 5888 5889 5889 5889 5890 5891 5892 5892 5893 5894 5895 5895 5896 5896 5897 5897 5897 5897 5898 5898 5898 5898 5898 5899 5899 5900 5900 5901 5901 5902 5903 5904 5905 5906
5890 5889 5887 5886 5885 5885 5885 5885 5884 5884 5884 5885 5885 5886 5887 5888 5889 5890 5891 5892 5893 5893 5894 5895 5895 5896 5896 5896 5897 5897 5897 5898 5898 5899 5899 5900 5901 5901 5902 5903 5904 5905 5906
5884 5883 5882 5882 5881 5881 5880 5880 5880 5879 5880 5880 5881 5881 5882 5883 5885 5886 5887 5888 5889 5890 5891 5892 5893 5894 5894 5895 5895 5896 5896 5897 5898 5898 5899 5899 5900 5901 5902 5903 5904 5905 5906
5878 5877 5875 5875 5875 5874 5874 5874 5874 5874 5874 5875 5876 5876 5877 5878 5880 5882 5883 5884 5885 5886 5888 5889 5890 5891 5892 5893 5894 5894 5895 5896 5896 5897 5898 5899 5900 5901 5902 5903 5904 5905 5906
5870 5869 5868 5867 5867 5867 5866 5866 5867 5867 5868 5868 5869 5870 5871 5872 5874 5876 5878 5879 5880 5882 5883 5885 5886 5888 5889 5890 5891 5892 5893 5894 5895 5896 5897 5898 5899 5900 5901 5902 5903 5905 5906
5862 5860 5859 5858 5858 5858 5857 5858 5858 5859 5860 5861 5862 5863 5864 5866 5868 5870 5871 5873 5875 5877 5878 5880 5882 5884 5886 5887 5888 5890 5891 5892 5893 5895 5896 5897 5898 5899 5900 5902 5903 5904 5906
5853 5851 5850 5849 5848 5848 5848 5848 5848 5849 5850 5852 5854 5855 5857 5858 5860 5862 5864 5866 5868 5870 5872 5874 5876 5879 5881 5883 5885 5887 5888 5890 5891 5893 5894 5895 5896 5898 5899 5901 5902 5904 5905
5845 5843 5841 5839 5838 5838 5838 5838 5838 5839 5841 5842 5844 5846 5848 5850 5852 5854 5857 5859 5861 5863 5865 5868 5870 5873 5876 5878 5880 5882 5884 5886 5888 5890 5891 5893 5894 5896 5898 5899 5901 5902 5904
5837 5834 5832 5830 5828 5827 5827 5827 5827 5829 5830 5832 5834 5837 5839 5841 5844 5846 5849 5852 5854 5856 5858 5861 5864 5866 5869 5872 5875 5877 5880 5882 5884 5886 5888 5890 5892 5894 5895 5897 5899 5901 5902
5829 5826 5824 5821 5819 5818 5817 5816 5817 5818 5819 5821 5824 5826 5829 5831 5834 5837 5840 5843 5846 5848 5851 5854 5857 5859 5862 5865 5868 5872 5874 5877 5880 5882 5884 5887 5889 5891 5893 5895 5896 5898 5900
5823 5819 5816 5813 5811 5809 5807 5806 5807 5807 5809 5811 5813 5815 5817 5820 5824 5827 5831 5834 5837 5840 5843 5846 5849 5852 5855 5858 5862 5865 5868 5871 5875 5877 5880 5883 5885 5887 5889 5891 5893 5895 5897
5817 5813 5810 5806 5803 5801 5799 5798 5798 5798 5799 5801 5803 5805 5808 5810 5813 5817 5821 5824 5828 5832 5835 5838 5841 5844 5848 5851 5854 5858 5862 5865 5869 5872 5875 5878 5881 5883 5885 5888 5890 5892 5894
5813 5809 5805 5801 5797 5794 5792 5790 5790 5790 5790 5792 5794 5796 5798 5800 5803 5807 5810 5814 5818 5822 5826 5829 5833 5837 5840 5843 5847 5850 5854 5859 5862 5865 5869 5872 5875 5878 5881 5883 5886 5888 5890
5810 5805 5801 5797 5793 5790 5787 5785 5784 5784 5783 5784 5785 5787 5789 5791 5794 5797 5800 5804 5808 5812 5816 5820 5825 5829 5832 5836 5839 5843 5847 5852 5855 5859 5862 5866 5870 5873 5876 5879 5881 5884 5886
5808 5803 5799 5794 5790 5787 5784 5781 5780 5778 5778 5778 5778 5779 5780 5782 5784 5786 5790 5793 5797 5801 5806 5810 5815 5819 5823 5828 5831 5836 5840 5844 5848 5852 5856 5859 5863 5867 5870 5873 5876 5878 5881
5807 5802 5798 5793 5789 5785 5782 5779 5776 5774 5773 5772 5771 5771 5772 5773 5775 5777 5780 5783 5787 5791 5795 5800 5805 5809 5814 5819 5823 5827 5831 5836 5840 5844 5848 5852 5856 5860 5864 5867 5870 5873 5875
5807 5802 5797 5793 5788 5784 5781 5777 5774 5771 5769 5767 5766 5765 5765 5765 5766 5768 5770 5773 5777 5781 5785 5790 5794 5799 5804 5809 5814 5819 5823 5827 5832 5836 5840 5844 5848 5852 5856 5860 5863 5866 5869